Torna al catalogo

COSMOS 2499 DEB

AttivoPO
NORAD 56574·DEBRIS·🇷🇺 Russia

Lanciato May 23, 2014 da Plesetsk Cosmodrome

Loading…

Prossimi Passaggi (prossime 24 ore)

TLE

In scadenzaSource: Space-Track

Epoca: Sep 7, 2026, 02:09 UTC

1 56574U 14028BH  26250.08988039  .00006337  00000-0  18182-1 0  9992
2 56574  82.4122 177.1011 0227903  86.4268 276.2878 13.01578394171946

Traccia COSMOS 2499 DEB in tempo reale con AllMySat

Download on the App Store